Regional Weather Roundup
Issued by NWS

Home | Current Version | Previous Version | Text Only | Print | Product List | Glossary Off
Versions: 1 2 3 4 5 6 7 8 9 10 11 12 13 14 15 16 17 18 19 20 21 22 23 24 25 26 27 28 29 30 31 32 33 34 35 36 37 38 39 40 41 42 43 44 45 46 47 48 49 50

000
ASUS44 KMEG 230710
RWRTN
TENNESSEE HOURLY STATE WEATHER ROUNDUP
NATIONAL WEATHER SERVICE MEMPHIS TN
200 AM CDT FRI JUN 23 2017

TNZ002-004-019-021-049-052-054-088>092-230800-
WEST TENNESSEE

CITY           SKY/WX    TMP DP  RH WIND       PRES   REMARKS
MEMPHIS INTL   MOCLDY    78  75  90 S13       29.73F
NWS MEMPHIS      N/A     77 N/A N/A MISG        N/A
JACKSON        CLOUDY    77  75  93 S8G18     29.79F
SOMERVILLE     CLOUDY    77  73  88 SE9G16    29.76F
COVINGTON      CLOUDY    77  75  94 S10       29.75F
UNION CITY     MOCLDY    77  73  88 S14G22    29.75F
BOLIVAR        MOCLDY    77  73  88 SE9       29.79F
PARIS          CLOUDY    77  73  88 S10G17    29.79F
HUNTINGDON     CLOUDY    77  73  88 S9G17     29.79F
LEXINGTON      PTCLDY    77  73  88 S10       29.82F
SELMER         CLEAR     75  73  94 S10       29.82F
SAVANNAH       MOCLDY    79  73  83 S10G18    29.82F
$$

TNZ008-025-027-028-033-062-065-066-230800-
NORTH MIDDLE TENNESSEE

CITY           SKY/WX    TMP DP  RH WIND       PRES   REMARKS
NASHVILLE      CLOUDY    77  73  87 S7        29.87F
PORTLAND       CLEAR     75  73  94 S15G21    29.85F
CLARKSVILLE    CLOUDY    76  71  85 S8        29.82F
SMYRNA         CLOUDY    77  73  87 S3        29.88F
COOKEVILLE     CLOUDY    75  72  88 S9        29.91F
GALLATIN       CLOUDY    77  73  88 VRB3      29.89F
CROSSVILLE     LGT RAIN  72  70  93 VRB5      29.99F FOG
$$

TNZ061-075-076-078-094-096-097-230800-
SOUTH MIDDLE TENNESSEE

CITY           SKY/WX    TMP DP  RH WIND       PRES   REMARKS
FAYETTEVILLE   CLOUDY    75  73  94 S12       29.92F
TULLAHOMA      CLOUDY    73  72  94 S8        29.93F
WINCHESTER     CLOUDY    73  73 100 VRB7        N/A
MCMINNVILLE    CLOUDY    75  75 100 S7        29.93F
COLUMBIA       CLOUDY    77  75  94 S10       29.84F
SHELBYVILLE    MOCLDY    77  73  88 S13G21    29.90F
$$

TNZ017-018-042-046-047-230800-
NORTHEAST TENNESSEE

CITY           SKY/WX    TMP DP  RH WIND       PRES   REMARKS
TRI CITIES     CLOUDY    71  69  93 CALM      30.00F
ELIZABETHTON   CLOUDY    70  68  94 E6        30.01F
$$

TNZ012-013-036-069-073-074-230800-
CENTRAL EAST TENNESSEE

CITY           SKY/WX    TMP DP  RH WIND       PRES   REMARKS
KNOXVILLE      LGT RAIN  73  70  90 S3        29.95F
OAK RIDGE      LGT RAIN  73  71  93 CALM      29.97F FOG
DOWNTOWN KNOXV   N/A     72  72 100 CALM      29.95F FOG
GATLINBURG     PTCLDY    70  70 100 CALM      29.96F
MORRISTOWN     CLOUDY    72  70  94 CALM      29.97F
JACKSBORO        N/A     73  72  94 S9        29.99F
$$

TNZ083-085-099-230800-
SOUTHEAST TENNESSEE

CITY           SKY/WX    TMP DP  RH WIND       PRES   REMARKS
CHATTANOOGA    CLOUDY    76  73  91 S7        29.96F
$$

SKY/WX REPORTED AS FAIR MEANS FEW OR NO CLOUDS BELOW
12 THOUSAND FEET.





USA.gov is the U.S. government's official web portal to all federal, state and local government web resources and services.